OneWeb SL0268

operational
NORAD ID: 48986 Int'l Des: 2021-060 Owner: ONEWEBN Country: UK Constellation: oneweb
LEOCIRCULARPOLARONEWEB_TYPE

About OneWeb SL0268

Description loading...

Live Position

Loading 3D Globe...

Upcoming Passes

Altitude History

Altitude vs Time

uPlot chart will show altitude changes over time

Two-Line Element Set

1 48986U 21060V 25350.79238297 -.00000059 00000-0 -18893-3 0 9994
2 48986 87.9047 265.0988 0001772 74.9733 285.1594 13.16596587215856
Epoch: Dec 16, 2025 • Age: 10 hours

Current Status

Altitude 1220.3 km
Velocity 7.24 km/s
Sub-Earth Point -54.82°S, 78°W
Launch Date Jul 1, 2021
Age 4.4 years
Type internet

Technical Details

Classification Payload
Mass 148.00 kg
Dry Mass 140.00 kg
Total Mass 148.00 kg
Length 1.30 m
Diameter 1.00 m
Span 5.00 m
Shape Trapezoid+2 pan
Manufacturer ONEWUS
Bus Type ARROW
Phase Status In Orbit
Owner/State ONEWEBN/UK

Large Constellations

Loading constellations...